Wind_Gust
18 18 17 17 16 15 15 14 13 12 12 11 11 11 13 13 14 14 14 13 13 9 5 8 11 12 12 11 10 9 8 20 17 22 24 31 17 11 11 11 18 13 13 18 20 21 20 20 20 19 21 20 23 27 27 19 17 21 24 22 20 21 23 21 23 20 17 16 16 18 14 15 20 18 20 18 22 25 23 23 22 24 28 32 43 50 58 56
19 18 18 17 16 15 14 13 13 12 11 10 11 11 13 14 14 14 14 13 13 12 7 7 10 12 12 11 10 8 16 20 24 26 35 19 18 14 10 10 16 17 16 21 21 20 20 18 18 17 20 24 16 25 14 23 14 20 19 23 21 20 22 17 18 22 21 21 16 17 14 14 20 16 21 18 17 18 23 21 20 24 26 28 31 42 52 52
20 19 18 17 16 15 14 13 13 12 11 11 11 10 12 13 14 14 14 14 13 12 10 8 8 11 12 10 10 8 16 21 27 34 35 24 21 19 16 19 19 15 23 21 21 21 20 20 20 18 20 24 17 25 15 15 17 14 20 21 22 19 20 22 19 20 17 19 21 14 19 16 22 22 19 20 19 17 21 22 20 21 21 24 26 27 37 48
20 19 18 17 16 15 14 13 12 11 10 12 12 9 11 13 14 14 14 13 13 12 11 9 8 9 11 10 7 17 19 21 27 33 27 25 24 21 17 20 19 20 23 24 21 22 19 20 20 20 21 23 23 23 23 21 23 19 23 19 20 19 21 22 20 19 16 14 15 15 18 17 15 19 18 25 22 18 20 19 22 24 22 24 27 27 26 31
21 20 19 17 16 15 14 13 11 10 10 12 11 9 11 12 13 13 13 13 12 12 12 10 9 9 8 9 9 19 18 20 19 23 18 19 25 23 19 20 19 26 23 21 22 21 22 21 21 20 21 25 22 21 23 22 13 20 21 15 18 18 18 20 21 17 17 15 14 16 16 20 18 16 18 20 19 17 20 21 24 24 25 27 30 29 27 26
22 21 20 19 17 16 15 13 11 9 9 12 8 9 10 11 12 12 12 12 12 12 12 11 10 9 9 6 19 20 21 19 18 17 12 12 20 21 19 18 20 24 23 23 22 20 20 20 21 22 23 21 21 21 18 15 11 24 17 15 19 18 23 20 20 19 12 19 12 14 15 15 18 19 18 17 19 20 20 24 27 28 25 25 25 27 26 27
24 23 21 20 18 16 15 13 10 9 8 9 9 8 10 11 11 12 12 12 12 12 12 11 10 10 8 7 23 20 25 37 21 17 13 15 17 20 18 16 17 24 24 24 23 24 21 21 20 21 22 22 22 25 21 20 18 19 24 15 18 20 22 19 19 16 13 12 19 18 12 17 19 18 17 20 18 18 15 30 30 27 27 27 27 25 25 25
25 24 23 21 19 17 15 12 11 9 6 7 6 8 9 10 11 11 12 11 11 12 11 11 10 10 10 18 18 22 23 29 22 21 13 16 20 23 21 24 25 24 26 26 23 23 20 23 23 20 24 26 25 25 20 19 17 21 26 20 20 19 24 21 23 15 13 13 12 12 14 16 16 20 15 19 20 17 15 25 25 26 23 24 24 24 24 24
26 25 24 21 20 17 15 12 10 8 6 5 8 7 9 10 10 11 11 11 11 11 11 10 10 9 11 17 21 22 28 31 21 22 23 23 24 28 29 28 26 26 27 26 25 24 20 21 23 21 25 23 23 23 18 20 26 20 20 23 19 20 19 26 19 22 19 16 12 14 14 12 13 13 18 21 16 20 13 17 23 22 23 24 25 24 23 23
27 26 25 22 20 18 15 13 11 8 6 5 5 7 8 10 9 10 11 11 11 11 11 9 9 8 14 19 20 24 19 22 22 24 23 21 25 28 29 24 28 27 27 26 24 25 24 24 20 19 22 26 26 24 21 23 27 21 17 19 21 23 22 25 28 14 14 18 15 20 13 16 14 15 20 19 20 20 17 18 19 21 23 23 22 24 22 23
28 27 25 23 20 18 15 13 11 8 6 5 5 7 8 9 9 9 10 10 11 10 11 10 9 12 18 22 24 23 12 14 21 21 21 22 25 28 28 26 25 30 26 24 26 24 23 24 22 23 21 29 20 22 23 26 20 18 20 20 22 23 24 28 21 21 15 24 10 16 12 11 13 17 22 23 22 19 18 19 21 21 23 25 25 24 23 21
29 28 26 24 21 18 16 13 11 9 6 6 6 7 8 8 9 10 10 10 11 10 10 11 12 19 20 23 26 28 12 13 13 16 20 21 23 25 24 24 24 25 25 25 24 22 23 23 21 25 29 15 26 19 25 22 23 20 19 25 21 23 29 23 24 22 13 15 16 11 15 17 18 20 20 19 18 17 15 18 19 20 23 25 25 25 25 24
30 29 27 25 22 19 17 14 11 8 6 7 6 6 8 9 9 10 10 9 10 10 11 8 11 19 19 22 32 34 20 14 13 14 17 19 20 22 23 23 22 23 24 23 23 22 21 22 22 25 28 30 27 35 25 22 24 20 22 24 23 26 28 25 19 14 20 16 10 14 23 21 21 21 17 20 17 18 18 18 20 20 23 25 25 26 25 24
32 30 29 27 24 20 17 15 11 8 6 6 7 8 9 9 10 10 12 9 11 10 10 8 18 19 19 24 23 27 21 13 12 15 18 19 18 21 21 22 21 22 22 23 22 18 20 22 21 24 26 28 30 20 26 24 20 27 23 25 27 23 24 24 19 21 22 20 15 13 22 22 19 19 17 18 17 19 19 19 20 21 24 26 26 26 25 25
34 32 30 28 26 22 18 15 12 7 7 8 6 8 8 10 11 11 10 10 10 10 8 7 20 17 19 26 25 16 13 12 16 17 19 22 19 18 18 17 19 21 23 18 20 14 15 15 19 25 29 22 27 28 28 25 24 26 27 29 23 24 20 16 15 17 26 22 17 18 22 22 23 14 22 17 16 18 21 19 20 21 23 24 24 25 25 25
34 33 31 30 27 23 18 15 10 6 8 7 6 8 8 9 11 11 12 8 10 10 18 17 20 23 21 27 18 17 22 22 22 19 20 21 19 18 19 18 16 17 15 16 16 15 17 17 24 23 26 22 26 26 25 28 27 27 27 20 24 19 19 16 20 19 20 16 17 21 18 19 23 19 15 15 14 17 18 20 18 20 23 24 23 24 24 25
35 34 33 31 29 24 17 12 8 8 10 8 6 7 8 9 11 10 11 11 14 18 19 17 19 24 19 19 17 20 25 26 20 23 21 21 20 21 20 19 20 19 17 15 16 15 18 23 20 27 25 29 24 25 27 25 26 28 26 24 19 18 14 17 19 18 19 17 20 20 22 24 27 17 15 14 13 15 18 20 19 20 21 24 23 23 24 24
34 34 34 32 31 26 16 11 8 9 7 9 10 12 17 9 13 15 7 13 18 21 21 26 23 19 36 36 27 25 24 24 27 25 21 22 22 20 19 22 17 18 19 19 19 22 22 26 25 26 23 26 26 28 27 25 25 21 19 21 22 20 18 15 19 24 17 21 20 17 20 24 26 23 15 16 16 13 15 18 19 20 22 21 26 24 23 27
35 33 33 33 31 28 17 11 9 8 7 9 10 9 9 8 19 20 17 20 22 17 19 26 27 28 19 27 33 23 30 25 22 22 25 22 23 21 18 17 19 22 24 23 24 24 25 24 24 26 29 27 28 27 29 26 23 20 17 20 21 20 21 23 16 19 18 21 19 15 21 13 16 14 19 19 15 13 14 15 20 22 23 20 20 22 22 23
34 34 33 32 30 28 21 16 11 9 13 15 21 20 17 17 17 17 23 22 28 25 19 22 35 30 25 16 26 27 23 25 27 23 21 23 24 21 22 21 21 24 24 27 26 27 22 26 27 27 27 27 25 26 28 30 29 24 17 16 18 19 17 17 13 15 20 17 20 17 17 14 15 12 18 17 14 14 13 15 14 22 26 26 23 19 20 20
34 35 33 32 29 27 23 18 13 12 17 21 18 18 16 14 18 18 24 25 29 30 36 22 28 28 34 22 22 22 25 25 22 24 24 23 23 23 26 24 24 26 27 25 25 23 25 27 27 26 25 26 26 26 27 28 26 20 22 21 24 21 20 14 19 16 16 21 20 17 14 17 11 14 21 18 16 18 17 16 16 30 26 23 19 17 21 19
34 33 33 31 28 25 23 20 14 11 11 17 19 22 24 17 15 15 20 26 30 36 33 29 26 28 25 29 19 21 21 27 28 24 25 24 26 29 25 26 25 27 24 28 27 26 28 30 27 27 28 27 28 29 29 28 23 21 25 23 23 22 19 15 16 15 16 21 20 21 18 18 16 23 21 22 21 21 18 17 19 24 23 20 19 15 16 20
34 33 32 29 27 24 22 18 16 11 16 19 21 23 26 18 15 15 17 26 29 24 34 31 29 28 29 26 20 16 23 27 31 29 33 27 25 31 23 29 25 26 28 27 30 26 27 29 28 28 29 28 28 27 18 20 22 25 25 27 26 19 21 23 20 15 18 23 20 15 20 22 22 21 23 22 24 23 23 23 22 24 24 23 16 15 18 20
33 34 33 29 28 25 21 17 17 13 21 23 23 28 25 25 16 17 20 24 26 23 31 33 30 30 31 30 28 24 25 27 26 29 28 33 30 25 31 24 25 28 31 28 28 30 29 28 31 30 29 30 31 25 23 24 25 25 26 25 26 21 24 26 21 22 18 20 22 16 21 20 21 23 21 22 22 23 22 23 23 23 22 22 24 19 19 21
33 33 31 29 28 24 25 18 14 22 20 22 29 30 26 22 13 14 21 27 34 39 25 29 30 32 30 25 24 33 26 27 24 24 34 30 31 29 28 27 29 28 27 27 28 31 33 33 30 32 30 27 27 26 26 25 26 26 25 26 25 18 17 22 18 17 22 27 28 23 28 26 28 28 21 20 23 25 24 25 25 23 22 20 20 18 21 20
32 32 29 28 26 27 22 13 21 25 21 26 22 26 27 17 13 14 20 22 24 31 31 35 32 38 35 34 27 28 21 35 24 27 33 32 27 30 28 33 29 27 25 28 31 32 29 27 30 26 24 24 24 28 23 23 27 25 26 26 25 21 19 18 21 22 23 23 24 24 26 20 22 26 20 18 22 24 25 26 25 25 25 25 24 25 23 21
33 33 30 27 22 22 18 13 23 25 24 28 29 21 13 16 9 14 21 21 26 36 37 27 33 37 41 28 33 25 31 32 26 27 31 33 31 27 30 27 27 27 27 27 30 33 28 30 25 22 25 27 25 28 28 25 26 30 17 20 20 20 20 21 21 24 24 19 20 24 24 23 24 23 22 18 21 24 25 26 26 27 26 26 24 25 23 25
33 32 32 28 25 9 21 29 27 23 24 22 15 14 13 11 11 13 18 13 23 29 33 30 21 26 31 29 30 35 26 27 36 34 27 31 28 29 34 26 27 24 28 27 27 22 25 28 27 25 23 30 29 25 23 24 30 23 15 18 21 21 21 22 23 25 25 22 25 26 24 28 23 25 19 19 20 23 24 24 24 25 25 25 26 27 26 25
34 31 31 30 34 28 24 21 20 29 27 24 19 15 15 10 16 20 20 15 21 32 23 28 17 22 20 27 35 31 33 29 27 30 29 28 29 27 34 30 29 24 25 26 29 25 26 27 25 24 27 28 26 28 25 22 27 23 25 20 22 18 20 21 26 27 24 26 26 25 25 26 20 27 25 18 19 19 21 21 22 23 24 25 26 25 24 24
37 31 28 26 30 15 17 20 27 31 26 23 22 15 12 13 19 18 17 21 18 27 26 21 30 27 28 32 35 34 36 28 26 29 32 36 29 28 29 21 30 26 28 28 32 31 24 27 24 31 31 26 25 27 29 29 23 16 18 24 24 24 24 22 25 24 19 23 25 21 22 23 22 25 22 22 23 22 21 22 22 24 22 24 23 24 25 25
38 36 27 17 22 22 24 23 29 32 25 21 18 17 16 18 26 23 18 28 22 29 25 25 29 27 33 32 36 35 34 31 27 26 33 30 29 29 25 29 26 27 28 27 31 33 32 20 23 24 22 30 26 29 28 21 19 19 25 26 24 25 23 24 24 22 27 29 25 27 29 22 27 27 24 22 22 23 22 23 23 24 23 23 21 24 25 25
39 39 36 26 27 23 23 24 19 26 18 13 13 19 21 25 26 31 24 19 28 28 27 27 26 35 33 31 29 40 44 34 28 35 33 34 29 35 34 28 31 30 28 27 29 27 32 30 23 24 21 28 29 26 22 21 22 24 24 26 26 21 25 25 23 24 28 28 20 23 28 31 22 22 26 23 23 24 21 24 25 24 23 22 23 24 25 26
41 39 42 34 19 20 26 32 29 26 18 14 18 19 26 27 28 30 34 24 24 22 28 21 28 29 29 30 35 33 33 34 29 30 30 33 31 31 28 34 26 32 27 24 26 29 29 27 27 26 25 28 25 29 27 26 26 25 28 25 27 27 26 22 25 25 26 27 23 24 16 26 27 26 23 25 23 24 24 24 23 23 21 21 23 23 25 26
42 41 34 20 20 25 22 19 21 21 19 13 20 22 26 28 35 14 31 35 24 20 16 26 24 26 29 41 31 32 38 32 29 37 32 33 35 31 35 34 32 31 31 19 33 27 23 31 34 28 30 25 33 31 26 23 23 29 23 29 24 26 32 24 28 27 25 22 20 23 24 26 23 25 25 25 24 24 24 25 22 22 21 20 23 24 25 25
48 40 27 25 24 28 28 26 22 18 15 20 24 29 29 37 27 29 31 31 40 25 21 19 25 26 29 33 29 35 32 37 35 29 34 35 34 36 33 35 35 32 26 29 25 29 27 29 21 28 21 27 30 30 30 26 24 21 23 26 27 27 23 32 24 24 21 18 22 23 21 23 27 28 23 23 23 22 22 22 20 21 21 20 23 26 26 26
33 23 27 29 26 22 25 27 20 18 18 23 29 31 38 33 30 28 31 25 34 34 27 24 25 28 29 31 30 31 34 34 33 36 34 35 32 36 30 31 41 35 34 30 19 26 25 31 20 23 27 23 27 29 33 28 29 17 23 27 22 18 25 19 23 26 22 19 27 18 24 27 26 22 22 23 23 23 22 21 21 21 20 21 24 24 24 25
27 29 25 22 26 24 25 24 22 20 21 27 32 35 33 36 31 28 28 30 25 27 31 33 36 31 29 33 31 30 32 34 32 39 37 31 39 34 34 31 26 33 35 30 25 23 22 23 23 24 27 27 22 20 25 30 29 26 26 21 17 15 20 20 22 13 20 28 25 27 26 25 27 26 25 24 24 23 23 22 21 20 20 22 22 23 24 24
30 26 29 30 32 30 26 24 22 22 27 30 36 21 25 38 28 34 31 33 33 29 35 29 30 27 32 32 32 31 28 34 31 37 32 33 42 29 32 38 28 30 29 32 27 24 26 27 25 24 24 24 25 20 24 23 21 29 25 18 28 21 24 25 21 20 19 20 24 26 28 30 30 26 31 27 27 24 23 22 22 21 20 20 21 22 23 24
25 26 32 24 32 31 31 21 24 26 28 37 39 35 41 40 28 30 31 36 34 33 33 30 29 28 30 31 27 29 32 40 32 33 36 35 41 28 37 29 28 31 27 27 36 25 24 26 23 23 27 23 24 25 27 27 27 24 22 27 20 24 22 22 23 22 25 20 21 24 23 27 23 29 31 29 25 26 25 22 21 21 21 20 20 21 22 23
24 26 30 27 29 29 23 22 25 28 35 39 34 42 24 36 39 35 36 32 38 32 30 29 27 30 29 27 28 29 30 32 34 34 34 27 39 25 33 29 29 30 30 24 26 24 26 19 24 24 24 23 29 29 28 27 26 28 28 29 28 26 15 21 22 28 26 24 24 25 24 18 21 30 31 30 29 25 24 23 22 21 20 20 19 19 19 20
24 25 29 29 21 17 21 22 30 36 39 35 32 37 32 39 28 33 37 38 42 31 35 28 30 31 28 29 33 29 30 31 36 38 33 30 37 33 29 30 25 24 28 26 28 26 26 27 25 22 27 29 25 21 23 27 25 26 24 25 26 25 26 24 24 24 31 30 27 24 28 18 18 22 27 29 28 28 24 24 23 22 21 19 19 18 18 18
22 24 24 14 13 16 23 29 39 30 39 38 40 41 40 23 38 32 32 35 39 47 28 36 29 30 29 32 27 28 33 31 34 34 31 33 29 33 23 31 26 22 28 33 29 25 28 20 26 27 29 26 23 21 20 17 16 22 24 24 23 24 23 27 25 20 25 29 24 25 23 18 18 20 26 27 25 26 26 24 24 22 21 20 20 19 18 18
25 31 31 39 32 26 27 33 29 36 39 39 27 35 36 39 32 34 38 32 38 41 43 37 33 31 28 32 24 31 30 40 30 34 30 29 33 31 27 28 29 27 27 30 25 26 11 32 27 28 25 24 18 13 13 17 21 26 26 26 25 26 23 25 27 20 25 22 24 22 26 21 19 20 20 22 22 25 25 23 24 22 21 21 20 18 18 18
28 31 37 30 24 25 30 37 32 31 37 31 35 38 31 40 38 36 42 34 44 33 40 41 25 30 29 27 31 30 24 36 30 34 37 28 33 22 20 22 21 32 28 21 28 24 26 27 29 26 30 30 25 26 26 20 25 28 28 27 26 28 24 23 24 18 21 24 26 27 31 17 20 21 21 22 24 24 24 22 22 23 20 20 19 18 17 17
33 29 33 38 31 28 40 35 30 31 32 32 38 38 40 42 34 38 36 36 36 37 29 33 33 26 35 27 35 30 26 28 30 30 33 27 27 17 15 21 24 23 26 18 13 19 28 20 28 30 29 28 30 32 31 32 31 30 27 28 27 25 25 24 19 24 24 20 24 29 28 22 25 21 21 22 23 23 22 23 20 20 19 20 19 18 17 16
20 22 22 27 36 33 38 30 32 34 33 32 34 39 37 45 39 36 38 43 35 36 37 28 26 29 33 28 33 32 31 30 33 26 33 35 24 23 18 21 21 22 16 13 13 15 24 26 29 29 33 33 29 25 21 23 24 31 25 29 30 27 26 23 20 22 26 20 23 20 24 28 24 26 24 23 24 23 23 21 22 22 19 19 17 17 16 16
27 27 20 22 23 34 33 33 36 37 35 28 34 35 37 40 39 40 34 47 34 38 37 35 31 33 34 32 29 30 31 30 33 34 29 30 22 22 19 20 22 16 9 11 12 20 20 24 28 29 29 30 28 28 23 21 23 23 25 26 27 27 26 22 18 22 14 20 26 20 28 26 26 27 26 25 24 23 21 22 21 20 20 19 18 17 15 17
27 25 31 26 29 26 27 30 35 34 36 37 38 35 33 38 39 40 33 38 30 35 40 28 34 36 31 32 29 32 25 31 33 36 32 30 29 24 25 20 22 13 12 22 19 20 20 22 21 24 29 32 28 24 20 18 23 25 20 18 21 20 17 18 19 21 17 19 25 12 19 18 24 24 24 25 24 23 23 22 20 20 21 19 19 19 19 18
31 33 35 28 35 30 33 31 32 32 38 42 45 36 38 35 35 40 37 29 38 33 37 29 32 33 33 32 31 30 26 29 28 34 34 27 30 29 25 23 22 20 22 20 23 19 21 22 22 25 26 28 28 24 15 16 19 23 23 21 18 19 18 19 22 20 21 23 21 24 20 16 20 21 24 27 24 23 23 21 20 21 20 20 20 19 18 18
27 26 28 34 32 33 32 30 32 28 28 26 31 37 50 42 37 33 38 38 33 33 31 39 36 36 32 33 32 33 26 26 22 29 26 27 28 27 23 23 22 23 25 26 23 13 20 17 14 19 24 26 25 25 21 20 20 22 20 21 21 19 21 22 22 20 20 23 25 25 23 25 19 12 21 28 26 26 24 22 21 18 20 20 17 17 15 17
32 30 29 33 36 29 28 27 29 28 28 28 34 30 33 39 42 40 37 33 35 31 32 33 34 33 33 33 34 33 29 28 28 26 26 28 27 25 23 24 22 26 27 29 24 17 19 14 16 19 16 21 26 26 23 19 19 22 23 23 24 23 24 23 27 22 21 24 20 18 21 27 21 18 29 25 24 26 24 20 19 19 19 16 15 14 13 12
30 24 25 28 37 27 34 30 31 30 33 29 31 29 38 32 32 33 46 39 39 37 33 32 31 32 28 31 34 33 30 32 31 29 30 27 28 24 25 21 23 25 26 29 18 22 23 23 20 17 19 20 20 25 23 20 19 26 27 27 28 25 24 23 23 20 23 20 21 17 23 16 22 30 27 25 24 23 21 20 20 17 17 16 14 14 14 13
Wind_Speed
14 14 13 12 12 11 10 10 9 9 9 8 8 8 8 9 10 10 11 10 9 6 3 6 8 9 10 9 7 7 4 8 7 10 12 17 12 3 4 7 9 5 5 7 10 11 12 11 12 11 10 8 9 11 12 10 5 7 5 5 7 4 4 8 7 6 2 7 7 10 5 8 11 9 4 10 11 11 14 11 12 16 18 22 28 26 26 20
15 14 13 13 12 11 11 10 9 9 9 8 7 8 9 9 10 11 10 10 10 9 4 4 7 9 9 8 6 4 6 8 12 15 21 11 15 13 4 4 7 8 6 9 12 12 12 10 11 9 9 9 8 10 1 5 2 7 3 8 3 6 8 7 8 9 8 2 6 9 3 6 7 8 2 3 9 10 11 11 12 15 17 20 22 33 28 20
16 15 14 13 13 12 11 10 10 9 8 7 7 8 8 9 10 11 10 10 10 10 7 4 4 7 8 7 6 3 6 9 13 20 21 17 14 13 10 9 9 9 10 12 12 13 11 12 12 10 8 10 7 12 5 4 2 3 4 9 4 6 8 8 7 9 8 12 11 5 5 5 5 9 6 5 6 10 10 9 10 12 14 16 18 19 28 28
16 16 15 14 13 12 11 10 9 9 8 7 9 6 6 9 10 10 10 10 10 9 8 6 4 5 7 7 5 7 7 10 12 14 15 18 18 15 13 11 10 10 11 14 13 13 11 12 12 10 10 9 10 12 7 3 4 6 8 6 7 1 7 7 7 9 7 7 3 8 4 3 6 8 2 12 8 5 9 11 11 13 13 15 17 15 17 24
17 16 15 14 13 12 11 10 9 8 7 7 8 3 6 8 9 9 9 10 10 9 8 6 5 4 5 5 4 7 7 6 1 5 9 16 20 19 16 13 11 11 13 12 12 13 13 12 12 11 9 9 11 11 8 10 5 3 10 0 8 7 6 9 3 10 3 9 5 9 1 10 3 9 4 10 1 3 8 13 14 15 14 14 15 16 12 16
18 17 16 15 13 12 11 10 8 7 7 7 5 4 6 8 9 9 10 10 9 8 8 8 5 5 4 1 6 8 6 3 5 3 10 5 17 17 16 13 11 11 12 13 12 12 12 11 11 9 8 9 10 8 2 4 1 9 7 4 9 9 12 9 2 5 4 9 6 2 7 6 1 10 7 4 7 10 10 15 17 16 15 13 13 13 12 11
19 19 17 16 14 13 11 10 8 7 6 6 6 4 6 7 8 9 10 9 8 8 8 8 6 4 3 2 7 7 9 11 12 5 7 13 9 10 11 10 8 10 13 12 13 11 11 12 10 10 10 11 11 7 8 11 10 4 10 4 8 10 11 6 7 4 6 3 10 9 3 2 4 9 7 7 8 9 9 20 18 16 16 15 14 11 10 9
20 20 18 17 15 14 12 9 8 7 4 5 3 4 6 7 8 9 8 8 8 8 8 8 7 5 3 6 5 6 10 13 6 10 10 13 12 9 9 10 11 12 13 15 13 13 12 12 11 9 10 10 8 12 11 10 2 6 9 12 6 4 14 11 8 3 2 7 6 2 4 3 4 6 5 9 13 10 6 17 16 16 14 13 13 13 11 8
21 20 19 17 16 14 12 10 8 6 4 2 5 4 6 6 7 8 8 8 8 8 8 8 7 5 4 6 7 8 11 17 12 13 14 14 13 12 14 11 14 14 13 13 15 14 12 10 12 10 11 12 13 15 11 8 9 9 9 14 8 11 4 12 10 13 12 6 4 6 3 4 5 5 3 8 9 12 3 12 15 13 12 11 12 9 10 10
22 21 20 18 16 14 12 10 8 6 4 3 3 3 5 6 7 8 8 7 7 8 8 7 7 5 5 5 7 8 3 15 11 13 15 14 15 14 16 13 15 15 13 14 14 15 14 11 12 10 13 13 12 11 10 13 12 12 7 8 11 14 13 12 18 3 8 9 7 9 2 8 8 5 5 7 12 12 7 11 12 10 10 13 10 9 7 8
23 21 20 19 16 14 12 10 8 6 4 2 2 3 5 6 7 7 7 7 8 8 7 7 5 5 7 8 7 9 3 6 11 11 14 15 15 14 15 15 16 15 15 14 15 15 14 14 13 10 9 9 10 11 8 11 11 10 9 10 11 12 13 16 10 10 5 10 4 8 3 3 8 3 3 7 14 10 9 10 10 11 11 11 10 11 8 6
23 22 21 19 17 15 13 10 8 6 4 2 2 4 5 5 6 7 7 8 8 7 7 7 7 5 7 9 11 12 3 1 4 8 9 13 13 14 15 15 15 15 15 14 14 14 14 14 13 12 10 7 10 8 8 12 11 12 9 10 11 14 13 14 12 13 4 1 5 3 7 5 5 7 4 11 11 10 6 11 10 11 13 12 10 10 9 8
24 23 22 20 18 15 13 11 9 6 3 1 2 4 5 5 6 6 7 6 7 7 7 6 5 6 7 9 15 20 12 3 3 7 9 8 9 10 12 14 14 14 15 14 13 13 13 12 13 15 12 12 13 11 12 13 14 11 8 9 12 11 11 15 10 2 5 4 2 4 6 2 7 5 9 10 8 10 6 5 9 9 13 13 10 10 8 11
26 25 23 22 19 16 14 12 8 5 2 2 3 4 5 6 6 7 7 7 7 7 7 4 6 7 7 11 9 13 14 6 6 7 10 9 10 11 13 13 12 12 12 14 14 10 9 11 13 13 10 13 12 12 14 11 9 9 10 9 10 9 9 15 5 11 8 10 6 7 3 7 11 6 5 10 8 11 8 7 8 8 14 14 11 10 9 12
27 26 24 23 21 18 14 12 9 5 2 2 4 4 5 6 7 7 7 8 5 7 4 2 7 5 7 8 14 1 11 3 7 9 9 11 11 9 10 9 11 13 13 11 9 6 6 9 6 10 10 12 13 14 11 10 10 9 9 10 9 10 6 6 5 9 11 10 9 8 8 9 14 6 8 9 8 11 9 7 8 7 13 12 10 12 11 11
26 26 25 24 22 19 15 12 8 5 5 5 5 4 3 5 6 7 7 6 6 5 6 6 8 9 9 11 2 11 11 11 12 11 10 11 11 10 9 9 8 9 8 7 6 5 6 7 9 8 10 12 13 10 10 10 9 11 11 9 11 6 3 6 10 8 11 5 9 10 1 4 10 12 9 9 7 10 8 9 7 7 13 12 10 12 11 12
28 27 26 25 24 20 14 10 6 6 8 7 4 4 3 4 5 5 5 5 5 6 7 4 8 10 5 2 4 9 11 13 11 11 11 11 10 11 10 9 9 10 9 8 8 7 7 10 7 10 10 11 10 10 9 9 10 10 10 8 9 9 5 3 9 7 10 7 9 11 7 10 8 9 5 5 5 6 8 7 6 4 7 11 7 9 12 12
26 26 27 26 25 22 13 8 6 4 5 7 6 2 4 3 2 1 3 5 6 7 8 11 9 7 13 17 13 14 12 11 13 12 12 11 12 12 9 9 8 10 9 10 10 10 9 9 8 10 8 11 11 11 10 10 10 4 5 7 8 9 3 4 3 8 9 13 11 9 8 14 15 15 8 8 9 5 2 2 7 8 12 7 9 9 12 14
26 25 26 26 25 23 14 8 5 4 5 8 6 1 2 3 4 7 5 6 7 4 5 8 8 9 3 10 22 13 13 12 13 13 14 13 12 11 8 8 8 10 10 9 8 12 8 8 9 9 11 11 12 12 12 14 14 11 9 9 10 9 8 9 7 7 9 12 9 6 9 3 6 7 9 8 7 4 2 7 12 6 12 5 7 8 8 11
27 27 26 25 24 22 18 13 9 6 6 5 5 4 4 3 4 4 8 10 13 11 10 12 18 16 15 5 14 16 12 15 13 13 13 13 10 11 10 10 11 10 11 10 10 13 8 10 10 11 11 13 15 15 16 17 18 15 10 5 7 6 8 7 7 7 10 8 8 8 9 5 8 4 9 5 8 7 6 8 7 12 10 6 2 3 6 8
27 26 26 24 22 20 19 15 10 10 8 8 8 7 5 3 6 3 10 12 16 18 22 12 17 17 17 12 6 7 11 14 12 13 14 11 12 10 11 11 11 11 12 13 12 10 11 11 12 15 15 15 16 15 16 16 16 9 8 7 7 9 6 6 9 5 7 8 7 8 7 10 2 5 5 5 6 7 7 8 11 14 8 6 6 4 2 5
28 26 25 24 21 19 17 16 12 9 8 7 6 7 8 7 4 2 5 8 17 23 21 18 16 16 14 17 8 11 9 9 14 13 13 13 13 12 11 13 13 12 11 13 13 10 11 13 14 16 15 16 16 17 17 17 13 5 7 9 9 8 9 7 9 3 5 8 7 9 8 6 6 4 6 6 10 7 7 8 12 15 10 5 6 6 7 7
26 25 25 23 22 20 18 14 13 9 5 6 7 11 11 9 7 6 7 9 13 13 20 19 17 17 16 14 5 7 13 15 14 15 15 14 14 15 11 13 13 13 13 14 13 12 12 12 17 16 15 16 16 17 11 4 4 8 8 9 10 9 7 6 8 7 8 6 8 8 8 8 7 8 7 9 10 12 10 14 14 15 12 4 3 8 9 11
25 26 26 23 23 20 18 13 12 7 8 11 12 15 13 14 7 8 10 8 9 13 15 18 18 16 17 14 9 9 11 10 13 17 15 15 14 14 14 14 14 13 13 16 17 15 13 13 15 17 16 17 18 16 11 8 8 10 13 12 11 12 7 11 3 9 9 11 13 5 6 3 10 7 8 8 7 7 9 13 13 11 12 13 13 11 12 11
26 26 25 23 23 20 21 15 5 9 9 11 15 18 15 12 5 7 8 8 11 14 15 16 13 16 15 12 11 14 13 12 13 12 16 17 16 13 13 11 11 13 15 16 17 16 16 17 14 17 15 17 17 10 8 10 11 11 13 14 15 11 8 12 11 6 7 9 10 10 6 3 3 9 5 6 6 8 10 9 9 11 11 11 11 10 9 9
26 26 23 23 21 22 19 5 7 8 11 12 11 15 15 9 5 6 7 5 9 10 13 16 11 14 11 17 14 13 12 14 14 13 15 16 15 14 9 12 9 13 16 17 15 10 12 15 18 17 14 15 12 10 11 11 11 10 10 16 15 13 9 10 12 7 7 6 8 12 7 3 6 8 6 4 6 9 6 11 11 12 11 10 9 8 10 10
26 26 24 22 18 18 9 3 9 14 11 12 16 11 5 7 3 6 6 6 9 8 16 7 15 7 11 15 17 13 13 12 11 16 15 18 17 13 15 12 11 10 11 9 7 9 11 17 16 10 9 8 7 10 13 15 11 10 10 9 10 12 11 12 12 9 6 8 3 9 9 7 5 9 8 8 5 8 8 9 12 11 12 12 11 10 10 8
26 26 26 23 20 6 8 11 13 11 12 12 7 6 4 3 4 4 4 2 4 5 11 11 5 9 13 14 19 14 13 9 14 16 17 18 16 15 16 15 14 14 15 12 12 8 12 15 17 12 12 12 12 11 11 15 12 9 7 5 10 11 9 10 10 9 9 8 6 10 10 7 6 7 11 11 9 8 10 10 10 13 12 12 12 12 11 10
27 25 24 24 28 22 10 7 7 12 12 12 10 6 5 5 5 4 4 4 2 4 5 12 3 7 9 14 19 16 16 13 12 14 17 17 17 12 14 18 16 15 15 15 12 10 10 15 9 5 7 11 13 13 13 13 12 9 12 12 7 7 9 10 10 10 10 9 9 9 9 7 5 10 5 8 9 9 10 11 13 13 13 13 12 13 11 12
29 25 22 21 20 3 5 7 10 16 14 11 12 7 6 5 5 5 3 8 1 6 10 5 10 11 14 14 16 19 19 13 12 10 17 14 17 17 13 12 15 14 13 15 16 16 13 15 14 10 13 11 10 11 12 15 14 7 11 13 10 9 9 8 9 9 6 4 8 10 11 9 4 7 9 8 10 11 11 11 10 12 11 13 13 12 12 11
30 28 22 13 7 7 10 9 15 17 13 9 9 8 7 5 7 5 6 6 5 9 9 9 12 13 16 19 14 17 19 17 14 11 15 15 15 16 12 13 13 12 11 13 14 18 19 12 9 7 10 9 13 14 17 10 5 11 7 6 5 8 10 10 8 9 6 7 9 12 16 13 7 4 8 6 12 14 13 14 14 14 13 12 12 13 13 12
31 31 29 13 11 7 7 9 8 13 9 5 5 7 6 7 7 9 6 3 12 10 13 10 13 13 18 19 15 17 16 18 15 15 14 14 13 14 15 12 10 10 11 11 11 13 16 14 6 9 8 14 14 14 8 3 4 6 4 5 7 4 4 5 6 5 8 8 7 13 18 15 5 8 13 12 14 14 13 13 14 14 14 13 13 13 12 11
31 30 32 18 10 8 12 16 14 13 10 7 6 6 8 8 8 12 11 9 2 3 10 10 12 17 15 18 18 17 19 17 16 15 17 16 15 16 18 17 13 13 10 10 11 11 11 14 16 13 11 13 14 9 8 9 9 11 9 8 8 7 5 4 7 5 7 11 11 10 6 6 7 7 13 14 14 15 15 14 15 14 13 13 13 12 12 12
31 31 14 10 7 11 10 10 9 12 11 6 6 6 9 9 11 8 16 14 10 7 8 10 13 15 17 15 16 15 16 18 16 14 17 12 15 13 16 20 20 16 13 8 11 11 7 12 14 13 11 12 15 10 9 9 9 11 11 11 9 8 6 5 7 5 9 6 4 8 5 5 8 6 15 14 15 15 14 14 13 14 13 12 14 14 13 13
35 25 13 12 10 13 16 14 12 12 8 7 8 10 10 13 9 12 13 13 14 13 11 6 12 12 16 16 16 19 15 13 20 16 16 16 14 14 14 15 21 19 13 12 8 8 15 11 9 16 12 13 15 15 14 14 12 9 8 9 11 9 5 9 4 6 4 3 3 7 3 4 6 11 12 13 13 13 13 13 12 13 12 12 12 11 11 11
22 9 11 10 12 12 12 12 12 10 7 7 9 9 15 11 9 11 10 12 14 14 15 14 13 13 11 12 15 19 20 14 19 16 14 17 16 16 17 13 17 21 14 10 5 9 9 10 11 12 16 14 14 13 14 15 10 6 9 10 9 7 11 5 7 12 6 3 3 3 5 9 11 10 12 14 14 14 13 13 13 13 12 11 11 11 11 11
11 13 9 11 13 12 12 13 10 9 9 10 12 13 12 11 16 13 10 16 13 16 17 13 11 12 13 12 12 18 15 16 15 15 13 15 15 19 17 17 15 19 22 13 9 9 7 7 11 12 17 16 7 11 15 17 13 6 8 6 8 7 6 2 4 2 5 7 3 9 6 11 12 6 12 14 14 14 13 13 13 12 12 11 10 10 11 11
12 10 13 16 18 17 14 13 12 10 10 12 14 16 10 16 14 18 15 17 17 18 13 10 8 15 13 14 13 15 16 15 15 14 12 15 11 15 18 15 18 17 18 20 10 6 8 9 9 13 10 10 14 10 8 11 11 13 10 3 7 4 8 7 1 4 5 5 5 11 17 12 12 9 14 15 16 15 14 14 13 13 12 12 11 11 11 11
10 10 11 13 13 16 17 11 12 11 11 13 15 13 15 17 15 16 16 18 17 19 13 13 12 8 13 14 13 14 15 14 15 15 13 11 13 11 18 12 14 17 17 17 14 8 9 8 7 6 11 10 12 10 8 10 9 11 10 11 8 6 6 6 5 6 5 5 6 8 11 5 7 7 16 17 15 16 15 13 13 12 13 11 10 10 10 9
9 7 9 13 15 15 13 12 11 12 13 16 14 15 9 16 18 21 20 19 15 13 12 16 15 11 14 16 16 12 14 19 14 12 15 8 16 12 16 15 13 16 20 16 11 13 8 5 5 7 13 13 10 8 10 11 10 12 12 11 9 7 5 7 2 7 6 3 4 4 6 2 5 15 19 19 18 15 15 13 12 12 12 12 11 10 9 10
8 6 8 16 12 7 11 9 12 14 16 13 16 17 17 15 13 17 24 27 19 16 17 13 13 13 12 12 16 16 8 12 14 13 12 14 13 10 14 14 12 13 15 13 12 8 4 6 5 5 9 12 9 9 14 15 13 9 9 10 10 11 9 8 7 8 11 6 3 2 3 3 2 10 13 17 16 16 15 15 13 13 12 11 10 10 9 9
7 6 7 2 6 3 6 11 11 11 11 16 16 15 14 13 17 20 18 19 24 17 14 15 16 15 13 15 15 11 12 12 15 14 13 13 14 16 9 16 13 13 10 11 11 11 7 4 8 8 10 10 13 12 12 10 8 11 11 10 8 8 7 9 6 5 6 8 9 7 3 4 5 1 14 15 14 15 16 15 14 13 12 12 11 11 10 9
7 10 17 25 20 15 12 13 13 13 15 14 15 19 18 17 16 15 19 18 17 18 17 15 17 16 16 14 11 13 15 12 14 15 16 17 17 17 14 20 20 16 10 7 11 10 4 6 8 12 10 11 11 4 3 7 8 9 9 9 7 7 7 8 7 4 4 2 4 4 2 2 4 6 11 13 14 15 13 14 15 12 11 11 12 11 10 10
9 10 13 15 13 11 12 12 12 13 14 16 19 20 18 18 19 18 19 19 15 14 18 17 15 17 15 14 14 14 10 8 15 19 15 16 9 2 7 11 13 11 11 7 8 8 3 7 10 8 7 8 9 9 11 9 10 9 9 9 11 11 12 10 11 4 1 7 7 1 1 3 5 8 10 13 14 15 15 13 13 13 11 11 11 10 9 9
9 8 11 13 13 10 14 12 13 13 15 17 17 21 20 18 17 22 20 19 19 20 14 12 14 14 14 14 17 17 15 14 8 15 16 11 7 4 6 13 15 12 14 4 4 6 8 5 8 9 10 8 8 9 9 10 10 8 12 14 14 16 16 11 6 4 4 6 10 5 2 7 8 9 11 13 14 14 13 14 12 12 12 11 10 10 10 9
5 5 5 7 9 11 14 15 15 14 15 16 18 19 21 20 18 20 23 23 22 21 18 12 12 17 19 16 16 16 16 16 14 7 12 13 7 5 8 12 12 11 8 10 0 6 5 9 11 11 12 12 12 11 9 9 10 12 14 17 17 16 15 13 6 5 5 5 6 6 8 13 13 13 12 13 13 14 14 13 13 12 12 11 10 9 8 8
7 6 4 5 8 13 15 14 16 17 14 14 9 13 21 22 18 18 23 16 21 20 16 18 15 14 15 18 15 15 19 19 18 16 14 13 7 6 11 12 13 8 5 3 3 6 6 9 16 18 17 15 15 17 14 12 10 11 14 14 16 17 16 13 6 5 7 6 6 2 18 12 14 15 15 15 14 14 13 12 12 11 11 10 10 10 10 10
7 7 9 10 11 8 9 11 18 18 20 20 16 17 19 21 23 17 16 21 18 15 14 13 18 19 20 17 15 11 13 17 15 13 18 17 14 12 9 10 10 8 6 6 9 8 7 6 12 13 16 19 18 16 13 10 12 15 12 8 10 10 10 10 7 7 7 4 4 4 12 10 13 12 15 15 15 14 14 12 12 11 11 11 11 11 11 10
9 10 12 13 12 14 14 18 20 17 21 22 15 20 22 22 21 20 14 13 17 16 20 11 17 20 21 20 16 13 15 9 10 16 15 13 17 10 8 11 13 10 8 7 9 5 5 7 11 13 15 17 18 16 8 8 9 14 14 13 11 11 11 9 7 7 6 6 6 5 7 6 11 13 14 16 14 13 12 11 11 12 12 12 12 11 11 10
8 8 7 14 13 15 16 15 15 15 14 13 9 16 21 21 23 19 18 19 13 18 19 22 23 23 19 19 19 13 13 14 12 12 12 12 13 13 9 10 7 9 9 11 9 7 7 4 6 10 11 13 15 16 14 10 10 12 10 13 11 9 10 10 9 7 5 7 7 6 3 5 2 2 11 17 14 14 14 13 13 11 12 12 11 10 9 10
9 9 8 11 15 10 12 13 12 12 11 12 13 16 17 24 26 22 20 16 19 15 16 20 22 22 21 20 21 20 17 16 17 16 15 15 11 10 7 8 12 10 13 12 11 6 7 3 5 7 5 9 14 16 14 11 12 14 14 14 13 11 10 10 7 7 7 6 4 4 6 6 5 8 15 16 14 16 15 13 11 10 11 10 9 8 8 7
9 10 11 9 12 12 13 14 15 13 12 12 13 16 15 17 18 20 18 21 23 23 19 17 19 16 15 20 22 21 19 17 17 16 16 14 14 12 12 9 12 10 10 12 9 8 8 7 6 4 6 5 9 15 15 12 11 13 14 13 14 14 11 10 9 8 9 6 5 4 4 5 9 16 16 14 14 14 13 12 12 10 10 9 8 8 8 6
Wind_Direction
342 339 335 332 329 325 321 316 312 305 299 291 280 265 251 237 228 223 222 226 230 214 217 238 230 226 231 234 234 252 261 254 256 228 232 242 255 57 43 119 146 148 161 250 252 255 255 243 248 247 256 265 262 249 246 264 279 275 291 329 216 335 23 5 55 45 213 75 70 63 326 118 114 113 117 106 106 107 89 81 88 75 73 85 107 126 133 146
345 341 338 334 332 329 324 319 314 309 301 290 278 267 250 235 219 218 217 220 220 212 212 257 235 223 224 228 239 238 242 253 260 255 241 241 213 225 163 146 155 169 203 233 240 239 253 249 248 244 259 265 269 281 41 263 313 273 324 271 52 317 39 353 52 68 12 107 128 106 106 90 116 125 85 118 128 123 101 89 81 83 87 99 111 125 135 146
348 344 341 338 335 331 327 324 318 312 304 288 284 274 245 222 212 210 210 216 215 216 225 247 248 213 221 225 234 211 255 263 255 252 250 228 230 194 182 175 179 164 202 221 228 245 253 267 281 290 259 272 270 278 186 293 251 303 343 317 14 60 323 3 29 48 57 320 56 99 52 95 102 104 185 83 132 141 118 124 103 96 108 109 114 126 136 142
351 348 344 342 338 334 331 327 323 316 310 297 308 266 224 207 203 203 204 210 216 215 218 233 227 228 222 228 225 228 244 282 270 252 237 202 192 180 178 177 187 182 220 241 255 266 268 275 279 288 297 279 280 259 276 314 287 47 268 334 326 349 313 64 331 52 54 357 184 143 83 106 77 70 5 67 342 116 107 133 128 120 113 115 122 131 147 146
352 351 348 343 342 338 334 331 327 324 312 310 306 235 201 194 194 198 202 208 211 212 213 217 231 228 230 231 220 243 261 277 271 64 26 176 175 174 173 176 183 200 217 237 250 260 270 271 275 271 271 278 270 294 237 243 195 360 285 76 306 342 307 69 335 75 326 165 311 24 264 82 125 116 146 128 287 132 105 119 126 122 123 125 132 141 149 152
355 352 351 348 343 343 340 334 332 329 323 318 322 194 188 187 190 194 200 204 206 207 208 213 209 238 211 169 244 234 245 191 40 58 71 120 165 165 167 169 182 211 215 235 247 258 254 249 256 261 258 247 253 248 222 250 89 292 313 347 274 61 295 28 1 50 316 360 332 258 72 95 348 86 43 343 106 76 108 115 116 120 127 126 125 134 141 165
356 354 352 350 348 345 343 341 335 335 331 315 325 175 186 184 186 194 197 199 201 203 206 207 214 218 236 242 243 250 236 271 313 130 104 122 129 146 151 159 173 211 219 232 240 249 243 255 251 262 265 268 262 271 298 285 348 274 272 265 263 67 265 284 100 59 3 39 308 55 113 224 124 147 155 115 82 59 48 114 114 123 127 132 130 125 129 177
358 356 354 352 349 347 345 341 340 334 332 322 321 177 184 183 188 191 196 198 199 201 202 209 213 222 205 228 208 212 228 259 210 131 138 127 139 144 151 174 188 200 216 225 235 236 250 246 252 252 255 276 301 284 333 321 247 278 276 269 325 319 300 315 35 281 141 186 255 63 228 218 68 93 209 108 108 118 112 122 119 124 135 132 132 138 150 160
359 357 355 353 351 347 346 344 339 342 326 277 313 185 181 188 190 190 193 196 200 199 202 211 212 220 226 290 244 259 241 230 135 147 142 144 152 155 174 183 193 199 213 227 234 247 248 251 250 261 287 275 271 320 306 228 235 250 298 358 327 245 301 275 339 269 127 270 128 201 235 59 195 63 131 113 125 105 150 113 127 131 130 132 123 142 137 142
359 357 355 354 352 349 346 345 342 337 332 283 248 212 183 190 191 190 192 195 199 204 209 210 212 194 218 233 240 250 67 109 138 149 159 150 149 162 186 196 186 203 214 223 231 237 241 250 262 262 254 266 287 275 273 291 306 321 294 264 310 346 336 285 245 21 34 312 68 263 126 211 79 241 147 160 128 122 161 129 133 123 128 119 131 144 141 129
360 358 356 355 352 350 346 343 340 338 326 291 246 196 193 188 190 191 195 197 204 209 206 213 186 213 223 225 251 239 60 255 139 155 159 148 154 168 190 204 190 204 217 224 230 234 245 255 264 271 283 279 297 279 264 261 270 280 297 286 270 259 253 275 307 282 129 212 164 289 254 84 112 173 268 160 124 133 166 134 145 144 125 129 132 137 127 131
0 358 356 355 352 350 348 343 341 335 323 267 251 207 193 186 188 195 193 198 208 212 206 210 178 235 263 266 244 246 353 202 177 142 149 156 170 188 194 202 195 208 212 226 228 236 242 254 253 257 267 307 249 276 268 335 295 264 268 295 284 275 267 245 249 236 169 332 211 190 321 186 133 225 73 132 129 133 165 155 149 157 142 129 135 136 145 117
0 359 357 355 352 349 346 343 337 334 312 251 239 212 194 187 191 196 194 198 213 211 214 205 210 245 272 263 245 240 252 237 149 148 157 175 181 193 199 204 203 212 220 231 238 227 239 244 256 267 267 267 286 287 326 301 282 323 294 268 275 256 246 267 202 109 137 129 220 54 263 272 176 191 185 124 142 127 118 230 153 166 150 136 140 137 137 127
0 359 357 355 352 348 344 343 338 335 309 256 223 200 194 194 196 193 195 227 176 215 209 194 243 242 249 262 256 212 214 206 148 207 183 178 196 188 195 204 206 212 225 239 246 258 237 233 255 272 282 274 273 288 276 288 293 260 272 269 262 266 270 233 182 185 233 130 209 107 360 333 290 186 180 150 158 148 145 191 176 178 142 143 139 140 148 134
360 359 357 355 351 346 341 339 334 321 287 225 243 211 194 197 200 198 205 228 207 198 198 219 230 243 214 260 250 328 21 275 213 207 187 193 206 181 208 206 211 212 220 230 255 271 313 308 259 247 252 253 260 266 270 268 269 256 248 235 239 254 240 111 195 129 238 129 212 165 180 189 246 210 165 159 169 162 151 180 185 199 146 138 147 140 149 142
359 359 358 355 351 345 338 334 338 337 278 307 298 272 211 204 205 208 208 267 169 195 201 223 204 225 301 271 291 121 194 211 223 217 187 212 204 211 192 199 215 219 225 235 247 254 239 259 250 253 252 251 250 249 263 260 249 249 243 251 259 237 269 185 162 224 223 213 182 217 214 52 313 298 182 162 193 173 180 150 192 181 145 157 143 144 158 147
359 359 359 357 353 346 334 329 326 308 297 293 309 320 222 212 213 221 227 251 185 207 211 232 191 193 241 102 116 209 205 210 216 207 197 205 208 221 177 192 209 212 208 233 215 240 238 230 237 251 255 267 252 242 245 250 264 250 211 247 257 257 184 241 145 231 180 274 175 177 254 121 253 258 208 139 279 252 179 172 175 169 107 121 132 153 150 150
358 358 359 359 357 354 344 334 330 276 285 299 274 163 220 205 286 267 222 239 208 198 229 248 275 238 250 266 252 223 208 200 202 202 198 192 220 219 191 198 199 221 197 220 211 231 205 232 217 245 231 224 242 244 240 243 239 242 273 231 219 223 290 289 132 194 216 179 261 180 235 162 197 238 217 201 180 231 199 167 158 111 83 106 182 176 156 154
357 357 358 0 2 3 357 342 328 291 301 311 273 273 45 188 233 242 222 169 177 180 209 198 190 201 29 203 218 230 204 196 191 199 188 200 200 238 195 216 216 208 210 216 196 214 194 232 222 233 239 227 222 238 240 240 244 232 205 238 260 270 178 221 221 138 212 162 229 203 214 172 202 188 210 201 195 167 193 171 119 128 116 178 173 142 131 155
356 356 356 358 1 4 3 351 335 313 323 264 189 178 194 201 167 185 212 204 220 210 248 163 195 221 274 233 185 220 212 178 186 196 189 196 200 212 215 205 215 217 223 218 197 202 196 217 220 221 229 236 233 225 240 251 259 273 319 298 258 247 274 263 309 158 192 222 202 195 232 199 212 130 37 72 83 30 274 29 58 100 98 89 79 130 141 143
354 354 354 355 357 358 359 351 337 317 339 294 280 249 233 262 255 178 171 216 222 240 254 257 196 224 251 288 184 149 164 159 207 180 206 171 214 202 204 207 216 213 219 226 227 179 215 223 226 230 226 233 242 232 230 248 256 287 298 286 251 250 252 197 204 196 157 243 191 227 215 228 136 190 130 144 61 82 52 70 86 78 49 91 58 36 224 157
352 352 351 352 352 353 350 349 335 329 310 281 271 239 251 335 14 5 240 240 221 227 242 247 252 242 251 254 241 158 175 192 200 201 198 177 198 216 174 208 209 223 210 222 233 202 206 225 230 233 236 233 240 240 228 228 246 225 252 263 248 235 248 165 221 136 208 196 251 195 222 235 184 112 127 87 91 75 60 76 75 87 83 359 85 64 21 35
350 349 349 347 347 347 343 336 333 322 275 231 238 246 256 322 338 0 301 281 283 246 228 236 232 241 243 241 230 164 206 210 204 202 196 183 196 214 194 198 214 225 220 210 226 215 217 218 231 236 238 239 237 246 272 321 293 272 239 230 253 262 229 187 216 163 226 228 222 189 204 230 143 124 94 88 96 77 73 68 79 102 110 142 109 91 73 26
347 348 346 344 342 342 333 332 306 273 228 235 254 262 285 298 326 330 301 277 283 254 230 217 228 227 232 224 195 208 226 211 223 194 189 181 213 196 233 203 220 222 227 214 221 233 224 227 212 219 233 240 240 233 219 238 250 225 247 260 248 237 205 275 227 199 226 218 250 132 241 265 163 156 123 104 89 132 107 91 88 85 83 71 62 62 82 112
343 344 343 340 340 335 329 311 271 225 219 225 251 258 262 281 317 311 323 285 246 247 248 239 208 218 221 226 210 212 201 247 232 216 175 187 206 206 219 223 232 222 229 227 218 233 245 245 223 207 215 225 239 248 217 229 239 252 230 241 254 256 247 202 248 216 214 218 199 240 227 110 88 93 104 115 162 138 112 103 100 90 88 84 80 85 79 81
339 339 341 338 335 334 310 307 223 236 222 232 244 247 235 264 330 347 309 277 267 262 182 227 176 205 208 199 215 208 212 228 220 233 175 187 208 226 193 235 208 234 225 237 229 223 241 241 255 246 205 217 211 227 243 224 244 243 237 213 230 258 230 248 221 184 239 216 208 209 229 147 167 135 173 136 148 115 122 116 109 105 95 89 95 100 95 93
338 335 336 333 331 336 318 274 354 312 249 247 226 250 358 293 348 324 270 229 267 229 200 157 168 154 195 190 198 179 215 211 207 234 192 173 207 205 243 213 214 244 252 234 244 230 217 247 248 243 246 248 219 224 234 238 228 244 252 248 242 239 213 225 248 227 230 232 27 262 235 210 202 162 158 135 137 108 120 130 121 117 122 111 100 86 78 73
334 333 331 330 321 324 264 308 315 292 264 6 344 10 300 312 327 263 248 308 260 133 180 143 198 128 211 180 193 193 220 189 198 209 216 166 209 195 228 233 225 214 225 247 241 219 224 233 244 216 214 231 234 234 234 233 241 240 260 254 256 259 252 234 250 245 225 241 192 208 208 233 174 151 141 148 144 141 124 123 124 117 115 117 107 97 96 87
331 330 330 329 321 294 235 221 283 271 275 310 322 330 316 339 292 286 255 258 16 211 59 172 76 182 221 205 188 203 214 228 219 181 193 170 195 230 202 234 253 239 217 227 247 236 214 258 218 225 222 229 232 230 233 239 230 236 279 260 222 242 249 235 225 243 252 224 235 222 211 243 116 174 137 189 136 126 123 127 130 132 134 129 119 120 111 108
327 325 328 331 322 257 157 212 241 252 274 292 297 323 319 295 243 227 223 254 200 228 183 105 183 180 202 198 194 195 220 220 240 170 173 185 183 222 237 221 229 249 251 219 235 256 266 188 241 207 216 234 231 226 243 227 237 269 238 267 209 233 265 252 251 257 250 263 268 263 255 240 115 208 140 230 149 143 118 111 113 121 129 128 137 130 113 100
324 322 321 329 296 321 325 266 244 240 245 269 268 305 303 239 237 220 227 235 202 246 167 137 189 174 197 206 195 197 216 222 212 185 177 191 192 203 221 223 231 244 237 244 216 232 248 265 198 230 238 213 242 236 220 249 219 198 216 242 275 224 224 236 238 236 243 232 220 241 258 243 174 243 156 142 126 126 127 121 113 110 107 102 88 88 93 96
323 318 314 314 256 290 245 247 290 343 317 283 297 272 237 235 216 227 232 177 269 188 199 174 207 191 202 206 214 191 204 216 212 195 203 186 200 194 203 230 183 223 230 227 228 211 235 225 231 234 220 245 210 237 248 247 240 239 249 254 250 232 238 259 243 229 237 253 224 222 222 248 170 206 128 138 117 120 118 115 113 107 101 95 95 93 88 86
321 315 311 295 243 207 235 252 288 297 305 297 284 262 235 228 231 216 236 215 260 94 173 213 196 199 202 206 214 202 197 216 204 199 211 187 212 200 205 219 205 208 227 209 238 213 225 234 203 218 228 221 257 226 218 213 200 227 219 224 228 236 212 249 240 243 255 235 250 266 267 110 93 120 125 119 116 110 103 105 109 110 108 108 108 101 91 84
318 313 309 279 251 226 236 255 264 270 267 293 263 248 243 237 234 219 231 225 241 172 249 213 214 200 202 213 205 214 196 211 208 198 198 206 204 217 204 208 227 203 230 230 219 214 225 206 211 206 213 206 220 238 229 239 204 215 232 234 229 237 215 218 244 245 229 261 306 285 13 119 157 147 112 107 104 105 104 106 101 102 100 101 101 96 92 88
314 299 267 267 241 236 236 243 250 260 273 255 240 238 232 236 241 228 223 234 239 252 251 222 260 210 207 215 214 212 223 193 213 210 201 213 209 219 212 203 210 236 205 233 202 238 229 244 213 197 240 186 210 211 241 250 252 235 228 227 239 227 213 251 236 237 267 32 355 344 25 147 85 101 106 115 116 111 118 118 117 108 106 101 96 92 89 88
306 312 306 272 255 247 225 221 226 229 237 232 236 233 231 225 224 219 247 238 248 254 239 221 230 231 225 216 216 230 199 240 188 218 215 212 222 217 219 214 205 208 231 219 200 233 221 235 239 217 213 225 196 206 216 230 244 213 232 229 242 220 221 213 232 248 282 160 236 124 158 104 132 134 140 128 124 125 122 114 108 106 103 96 92 93 91 88
325 312 304 298 280 253 226 211 198 202 211 231 233 238 237 239 238 246 237 249 253 246 254 259 214 231 217 222 220 213 206 215 227 202 217 215 220 225 215 221 220 203 218 239 216 221 250 244 226 238 212 213 244 223 224 206 230 240 237 236 247 257 290 261 259 142 221 239 199 169 167 157 159 159 156 143 141 144 136 128 122 116 112 104 99 94 91 87
313 295 284 269 258 261 245 199 192 192 211 223 233 244 241 243 233 244 261 258 254 258 269 271 267 215 231 232 224 214 200 203 210 220 228 212 246 204 223 226 209 226 208 213 247 194 230 249 227 217 236 196 210 256 284 264 200 232 230 129 243 179 219 230 280 250 234 221 236 188 189 184 186 163 163 161 157 150 143 137 132 122 110 105 99 93 90 90
276 285 292 271 244 226 236 187 191 195 209 225 233 237 231 251 256 249 243 254 265 280 269 261 268 203 238 232 232 226 215 216 205 214 220 205 234 192 230 223 210 217 235 218 209 218 208 245 218 220 219 220 211 196 230 219 218 240 268 255 217 256 263 254 191 239 226 249 233 244 226 172 242 150 163 164 160 154 145 145 136 128 126 121 116 109 96 83
322 313 281 270 261 217 198 176 197 207 217 226 225 236 236 238 239 252 260 259 260 252 243 269 253 251 221 240 245 237 213 226 216 222 220 200 232 201 231 215 233 201 220 227 239 202 222 204 257 203 215 224 220 201 215 229 230 210 211 236 243 235 216 253 230 232 224 232 263 251 230 67 165 161 170 166 158 154 151 142 131 123 113 108 101 97 91 88
300 271 280 285 324 125 149 178 207 212 224 234 237 240 233 240 241 236 242 252 261 265 271 245 246 247 252 245 236 243 242 233 225 222 217 226 222 222 210 234 212 226 199 216 226 204 226 191 254 209 192 225 238 188 216 221 227 222 222 221 228 231 223 204 231 228 243 214 200 123 339 268 38 161 168 156 150 149 143 132 129 122 115 107 106 100 101 97
294 275 246 258 24 323 189 219 219 227 236 229 224 225 237 242 250 252 247 234 242 252 244 271 265 258 249 243 255 241 245 228 224 228 227 235 210 234 171 228 240 218 194 209 212 201 230 196 221 235 218 220 226 235 234 249 246 244 229 231 222 241 223 231 239 237 269 254 271 263 185 225 321 144 154 141 151 140 137 134 125 123 118 117 109 107 101 96
274 264 290 311 311 305 253 241 235 229 233 237 239 240 240 239 244 244 250 250 244 231 247 236 233 248 252 265 267 272 245 242 237 225 230 224 236 221 213 199 224 222 212 207 204 224 121 225 222 241 242 233 226 312 294 245 272 267 251 256 239 230 222 249 248 179 233 287 279 243 215 124 105 52 105 136 134 134 130 129 131 126 125 121 117 115 109 105
312 299 300 290 294 285 260 239 234 237 240 237 236 243 234 239 236 237 241 242 246 244 229 229 232 233 254 243 252 264 261 242 233 245 226 230 236 181 239 223 201 215 204 214 239 138 198 183 228 224 232 235 242 212 229 214 230 244 257 239 239 251 252 248 259 118 134 246 233 255 185 243 156 149 138 132 139 133 131 132 129 128 129 126 123 119 119 117
295 264 240 269 271 252 248 242 244 247 245 245 239 234 235 235 236 241 239 236 241 250 253 230 235 242 234 238 248 241 245 248 257 233 251 227 209 174 203 207 173 221 217 96 54 135 221 209 194 223 223 220 217 216 222 211 215 235 237 247 241 242 240 243 236 209 240 178 231 228 240 152 129 126 136 133 134 132 132 133 132 133 133 130 126 129 125 122
287 309 304 273 235 234 244 251 255 248 247 246 245 245 238 238 235 234 237 244 239 241 244 251 226 229 244 232 231 242 244 240 242 246 230 232 194 192 157 209 161 197 58 73 210 227 209 218 221 219 227 230 235 240 236 228 223 227 222 229 238 235 241 244 238 236 239 241 249 265 112 143 143 164 149 151 153 143 145 144 144 138 133 128 131 134 133 128
301 270 281 271 283 236 230 228 236 241 253 255 254 237 241 243 239 236 223 240 230 238 239 230 233 234 227 236 240 233 233 242 234 238 239 236 179 180 170 211 186 112 138 115 218 211 223 225 222 229 231 239 240 247 249 254 253 254 243 226 229 236 231 235 225 232 221 260 243 161 140 168 168 173 174 168 160 151 148 149 140 136 134 143 144 140 140 138
259 254 270 291 296 282 272 230 224 237 244 247 254 255 250 241 239 237 228 232 234 224 243 245 244 233 237 229 232 244 230 232 237 233 231 227 231 166 178 192 204 133 172 176 183 219 221 235 232 232 236 241 241 245 250 260 245 241 231 237 249 212 207 214 224 239 269 254 272 148 157 152 165 190 185 173 156 154 154 148 142 142 146 147 148 151 148 140
277 289 282 309 295 288 287 306 301 285 253 237 239 241 247 248 247 236 230 239 221 218 221 242 240 238 232 232 229 228 225 226 221 241 236 215 221 199 195 192 208 140 180 200 203 192 227 233 235 232 237 231 234 233 217 243 242 238 246 247 232 212 211 201 212 228 236 243 257 262 235 214 186 204 182 157 152 153 144 139 145 155 156 156 156 154 151 145
301 340 321 325 311 294 292 284 279 283 275 276 281 249 237 239 245 246 234 228 231 220 213 231 236 241 244 241 237 236 221 222 234 238 234 237 227 217 200 205 181 177 185 209 201 172 211 211 231 238 237 229 229 230 223 215 245 252 244 250 244 218 215 191 211 219 244 271 284 287 275 242 217 99 156 140 151 150 141 151 159 161 160 159 158 156 153 147
314 323 316 310 306 294 294 282 271 276 277 270 261 255 242 233 236 239 252 243 234 238 207 228 235 234 234 241 243 241 232 224 219 232 241 227 237 173 197 187 211 185 195 200 202 132 182 224 197 230 248 241 215 223 209 213 232 248 245 238 230 214 213 202 201 195 219 234 222 226 237 231 208 122 123 147 159 143 149 161 165 159 160 159 161 162 148 131
315 318 317 303 283 284 289 284 277 283 275 273 267 255 245 249 252 237 238 240 247 244 233 220 236 239 230 234 239 240 242 238 230 225 229 240 228 215 196 218 194 198 194 206 176 175 178 208 207 206 229 224 217 224 212 199 215 231 231 230 231 231 230 228 228 209 213 214 229 216 254 54 106 125 134 135 138 148 158 171 157 163 162 163 163 150 145 138